User: anonymous   Login
Location: Newark
(49.1000°N, 0.4667°W)
Time: 10:24:14
(UTC+00:00)
Language:

UWE-3 - Orbit

View from above orbital plane
View from above orbital plane
View from above satellite
View from above satellite

Ground track
Ground track

The orbit data is extracted from the following two-line orbital elements,

1 39446U 13066AG  20184.90795112 +.00000119 +00000-0 +22624-4 0  9992
2 39446 097.5984 173.7354 0068314 259.2057 100.1460 14.78556097354851
Epoch (UTC): 02 July 2020 21:47:26
Eccentricity: 0.0068314
inclination: 97.5984°
perigee height: 586 km
apogee height: 682 km
right ascension of ascending node: 173.7354°
argument of perigee: 259.2057°
revolutions per day: 14.78556097
mean anomaly at epoch: 100.1460°
orbit number at epoch: 35485

The dashed part of the orbit path shows where the satellite is in the earth's shadow,  

DLR